Погода в Тобольске

Погода в Тобольске : погода сейчас, прогноз погоды и архив. Всё, что Вы хотите узнать о погоде в Тобольске!

Хотите узнать прогноз погоды в Тобольске? Тогда Вам сюда: Погода в Тобольске

Поиск расширенной информации на нашем сайте:

Другие новости

Новости СМИ2

Главная страница сайта

Новости сайта

03.07.2017

Напоминаем, что на нашем специализированном сайте Метеоцентр.Азия вы можете получить высокодетализированные автоматические прогнозы погоды по пунктам России, СНГ и мира в авиационном формате (включающие направление и скорость ветра, видимость, явления погоды, количество и форму облачности, нижнюю и верхнюю границу облачности).


Погода в Тобольске - сегодня

Время (UTC), дата Ветер
(°,м/с) 
Видим.   Явления Облачность Т
(°С)
Тd
(°С)
f(%) Тe
(°С)
Pmin
(гПа)
dP
(гПа)
Po
(мм)
O2
(г/м3)
Тmin Tmax R s Состояние
почвы
09 22.11.17 130 (ЮВ) 20000 м    10/4 600 м средняя 
[Sc|Ac trans]
-2.5 -6.5 74 -5  1023.3  -0.5  763  311           
12 22.11.17 140 (ЮВ) 10 км    10/0 верхняя 
[Ci sp]
-2.4 -6.6 73 -4  1023  -0.3  763  311           
15 22.11.17 130 (ЮВ) 10 км    10/0 верхняя 
[Ci sp]
-4.9 -8 79 -6  1022.9  -0.1  762  314    -2.3       
18 22.11.17 110 (В) 10 км    10/0 верхняя 
[Ci sp]
-7.2 -8.8 88 -9  1022.7  -0.3  762  316           
21 22.11.17 110 (В) 10 км    ясно 
-8.2 -9.3 92 -10  1022.7  762  318           
00 23.11.17 100 (В) 10 км    ясно 
-9 -1 100 -9  1022.5  -0.3  762  318           
03 23.11.17 130 (ЮВ) 10 км    ясно 
-9.5 -10.7 91 -11  1022.8  0.3  762  319  -9.7      18  равномерный
сухой снег
100% 
06 23.11.17 130 (ЮВ) 20000 м    ясно 
-5.9 -7.8 86 -8  1022.8  0.2  762  315           
09 23.11.17 130 (ЮВ) 20000 м    3/0 верхняя 
[Ci sp]
-2.8 -6.8 74 -5  1022.4  -0.4  762  311           
12 23.11.17 110 (В) 10 км    ясно 
-5.3 -8 81 -8  1022.6  0.1  762  314           
15 23.11.17 120 (ЮВ) 10 км    8/0 средняя 
[Ac und]
-6.5 -8.8 84 -9  1022.1  -0.5  762  315    -2.6       
18 23.11.17 120 (ЮВ) 10 км    8/0 средняя 
[Ac und]
-6 -9 79 -7  1022.3  0.2  762  315           
21 23.11.17 110 (В) 10 км    ясно 
-7.1 -9.7 82 -9  1021.6  -0.7  761  316           
00 24.11.17 110 (В) 10 км    ясно 
-7.9 -10.1 84 -9  1020.6  -1  761  317           
03 24.11.17 100 (В) 10 км    ясно 
-8 -10.1 85 -8  1019.6  -1  760  316  -8.9      18  равномерный
сухой снег
100% 
06 24.11.17 130 (ЮВ) 20000 м    10/0 верхняя 
[Ci fib]
-3.4 -8.8 66 -6  1018.8  -0.7  759  311           
09 24.11.17 200 (Ю) 20000 м    10/0 верхняя 
[Ci sp]
+0.9 -8.4 50 +2  1018  -0.7  759  306           
12 24.11.17 180 (Ю) 10 км    3/0 верхняя 
[Ci sp]
-4.8 -8.9 73 -4  1017.8  -0.4  759  312           
15 24.11.17 250 (З) 10 км    3/0 верхняя 
[Ci sp]
-8.6 -10.1 89 -8  1017.6  -0.2  758  317    +1       
18 24.11.17 310 (СЗ) 10 км    3/0 верхняя 
[Ci fib]
-9.4 -10.5 92 -11  1017.9  0.3  759  318           
21 24.11.17 340 (С) 10 км    ясно 
-7.6 -8.6 93 -10  1019  1.1  759  316           
00 25.11.17 310 (СЗ) 10 км    ясно 
-9.5 -11 89 -11  1019.7  0.6  760  318           
03 25.11.17 320 (СЗ) 10 км    ясно 
-11.8 -13.8 85 -15  1021.2  1.5  761  322  -12      16  равномерный
сухой снег
100% 
06 25.11.17 330 (СЗ) 20000 м    10/0 верхняя 
[Ci sp]
-11 -13.9 79 -13  1023.2  763  321           
09 25.11.17 320 (СЗ) 20000 м    3/0 верхняя 
[Ci sp]
-9.2 -13.4 71 -12  1024.4  1.2  763  320           
Время (UTC), дата Ветер
(°,м/с) 
Видим.   Явления Облачность Т
(°С)
Тd
(°С)
f(%) Тe
(°С)
Pmin
(гПа)
dP
(гПа)
Po
(мм)
O2
(г/м3)
Тmin Tmax R s Состояние
почвы

Для получения пояснительной информации подведите курсор к названию столбца.

ПОГОДА в Тобольске - архив

Всё, что Вы хотите узнать о погоде в Тобольске - удобно и подробно!

Выберите нужную дату (начиная с 1 января 2015* года) и нажмите кнопку "Найти".
Будут отображены архивные сводки погоды по пункту Тобольск, начиная с указанной даты.


Отображать данные в формате CSV (для использования в таблицах Excel)


Внимание! Наш архив погоды предназначен исключительно для личного некоммерческого использования в познавательных целях. Если Вам необходимы официальные справки о состоянии погоды (для производственных, юридических, коммерческих и т.п. целей), обращайтесь в органы Росгидромета.

*Примечание: данная дата относится к архиву по метеостанциям СССР (Россия, СНГ, Балтия).
Архив по метеостанциям Зарубежной Европы и Азии (кроме Китая) хранится 10 дней, по другим регионам земного шара (Китай, Африка, Америка, Австралия, Океания) - 1 день.

Тобольск - район местоположения метеостанции


Название, широта, долгота, высота метеостанции:
Тобольск 58.2°ш. 68.2°д. 50 м над ур. моря [Российская Федерация]

Дополнительная информация

В oтличие oт бoльшинства пoгoдных сайтoв мы публикуем пoдрoбную метеoинфoрмацию в детальнoм прoфессиoнальнoм фoрмате.

Характеристики температуры и влажнoсти вoздуха измеряются на высoте 2 м в тени вдали oт зданий и деревьев.
Скoрoсть ветра измеряется на высoте 10 м (на урoвне рoста челoвека скoрoсть ветра ниже в 1.5-2 раза). Если метеoстанция нахoдится в гoрoде или в лесу, тo скoрoсть ветра занижена на 2-4 м/с пo сравнению с oткрытым местoм. Скoрoсть ветра над акватoриями крупных рек и oзёр, а также на вершинах хoлмoв на 2-5 м/с выше, чем в oбычных услoвиях.
Атмoсфернoе давление в разных тoчках местнoсти мoжет значительнo oтличаться oт давления на метеoстанции, в зависимoсти oт услoвий рельефа (при пoдъёме на 10 м давление пoнижается примернo на 1 мм рт.ст.).